When you browse on this site, cookies collect data to enhance your experience and personalize the content and advertising you see.
Visit our Privacy Policy to learn more. By continuing to use the site, you agree to this use of cookies and data.
  • In Austria
  • List of Countries
  • For 7 days
  • Water Temperature
  • Satellite Maps
  • Weather Map
  • News
  • Weather Widgets
  • user-avatar
    Login

    Hourly Weather Osaka

    Today, 19 February, Tuesday

    Time Temperature Precipitation Wind Pressure Humidity
    00:00 +10°C° 0 mm 1 mps 769 mmHg 47%
    01:00 +10°C° 0 mm 1 mps 768 mmHg 47%
    02:00 +9°C° 0 mm 1 mps 768 mmHg 47%
    03:00 +8°C° 0 mm 0 mps 768 mmHg 47%
    04:00 +9°C° 0.1 mm 1 mps 768 mmHg 49%
    05:00 +9°C° 0.1 mm 1 mps 767 mmHg 51%
    06:00 +8°C° 0.1 mm 2 mps 767 mmHg 54%
    07:00 +8°C° 0.9 mm 2 mps 767 mmHg 60%
    08:00 +8°C° 0.9 mm 2 mps 767 mmHg 65%
    09:00 +7°C° 0 mm 4 mps 766 mmHg 68%
    10:00 +7°C° 1.4 mm 4 mps 766 mmHg 73%
    11:00 +8°C° 1.4 mm 3 mps 765 mmHg 78%
    12:00 +9°C° 1.4 mm 3 mps 764 mmHg 82%
    13:00 +9°C° 0.8 mm 3 mps 763 mmHg 83%
    14:00 +10°C° 0.8 mm 3 mps 762 mmHg 84%
    15:00 +11°C° 0 mm 3 mps 760 mmHg 84%
    16:00 +11°C° 1.5 mm 3 mps 760 mmHg 86%
    17:00 +11°C° 1.5 mm 3 mps 760 mmHg 89%
    18:00 +13°C° 1.5 mm 2 mps 759 mmHg 92%
    19:00 +13°C° 0.2 mm 2 mps 759 mmHg 92%
    20:00 +13°C° 0.2 mm 1 mps 760 mmHg 93%
    21:00 +13°C° 0.2 mm 1 mps 760 mmHg 94%
    22:00 +13°C° 0 mm 1 mps 760 mmHg 95%
    23:00 +13°C° 0 mm 2 mps 761 mmHg 96%

    Tomorrow, 20 February, Wednesday

    Time Temperature Precipitation Wind Pressure Humidity
    00:00 +14°C° 0 mm 2 mps 761 mmHg 97%
    01:00 +13°C° 0 mm 2 mps 761 mmHg 96%
    02:00 +12°C° 0 mm 3 mps 761 mmHg 94%
    03:00 +12°C° 0 mm 3 mps 761 mmHg 93%
    04:00 +12°C° 0 mm 3 mps 762 mmHg 92%
    05:00 +12°C° 0 mm 2 mps 762 mmHg 92%
    06:00 +12°C° 0 mm 2 mps 762 mmHg 91%
    07:00 +13°C° 0 mm 2 mps 762 mmHg 86%
    08:00 +12°C° 0 mm 3 mps 762 mmHg 81%
    09:00 +13°C° 0 mm 3 mps 763 mmHg 75%
    10:00 +14°C° 0 mm 4 mps 763 mmHg 67%
    11:00 +15°C° 0 mm 5 mps 763 mmHg 58%
    12:00 +16°C° 0 mm 6 mps 763 mmHg 50%
    13:00 +15°C° 0 mm 6 mps 762 mmHg 50%
    14:00 +15°C° 0 mm 6 mps 762 mmHg 51%
    15:00 +15°C° 0 mm 6 mps 762 mmHg 51%
    16:00 +14°C° 0 mm 6 mps 762 mmHg 52%
    17:00 +13°C° 0 mm 6 mps 763 mmHg 53%
    18:00 +11°C° 0 mm 6 mps 764 mmHg 54%
    19:00 +11°C° 0 mm 6 mps 764 mmHg 55%
    20:00 +10°C° 0 mm 5 mps 765 mmHg 56%
    21:00 +9°C° 0 mm 5 mps 765 mmHg 57%
    22:00 +8°C° 0 mm 5 mps 765 mmHg 57%
    23:00 +8°C° 0 mm 4 mps 766 mmHg 58%

    Day after tomorrow, 21 February, Thursday

    Time Temperature Precipitation Wind Pressure Humidity
    00:00 +7°C° 0 mm 4 mps 766 mmHg 59%
    01:00 +7°C° 0 mm 4 mps 766 mmHg 60%
    02:00 +7°C° 0 mm 3 mps 766 mmHg 61%
    03:00 +7°C° 0 mm 3 mps 766 mmHg 62%
    04:00 +7°C° 0 mm 3 mps 766 mmHg 62%
    05:00 +5°C° 0 mm 3 mps 766 mmHg 63%
    06:00 +5°C° 0 mm 4 mps 767 mmHg 64%
    07:00 +6°C° 0 mm 4 mps 767 mmHg 61%
    08:00 +6°C° 0 mm 4 mps 767 mmHg 58%
    09:00 +6°C° 0 mm 4 mps 767 mmHg 55%
    10:00 +7°C° 0 mm 4 mps 767 mmHg 51%
    11:00 +8°C° 0 mm 4 mps 767 mmHg 47%
    12:00 +9°C° 0 mm 5 mps 767 mmHg 44%
    13:00 +9°C° 0 mm 5 mps 767 mmHg 43%
    14:00 +9°C° 0 mm 5 mps 766 mmHg 42%
    15:00 +9°C° 0 mm 5 mps 766 mmHg 42%
    16:00 +8°C° 0 mm 5 mps 766 mmHg 45%
    17:00 +8°C° 0 mm 5 mps 767 mmHg 48%
    18:00 +7°C° 0 mm 5 mps 767 mmHg 51%
    19:00 +6°C° 0 mm 4 mps 767 mmHg 53%
    20:00 +7°C° 0 mm 3 mps 768 mmHg 55%
    21:00 +5°C° 0 mm 3 mps 768 mmHg 57%
    22:00 +6°C° 0 mm 2 mps 768 mmHg 58%
    23:00 +6°C° 0 mm 2 mps 768 mmHg 60%

    22 February, Friday

    Time Temperature Precipitation Wind Pressure Humidity
    00:00 +6°C° 0 mm 2 mps 768 mmHg 61%
    01:00 +6°C° 0 mm 1 mps 768 mmHg 62%
    02:00 +6°C° 0 mm 1 mps 767 mmHg 63%
    03:00 +6°C° 0 mm 1 mps 767 mmHg 64%
    04:00 +6°C° 0 mm 1 mps 767 mmHg 65%
    05:00 +6°C° 0 mm 1 mps 767 mmHg 65%
    06:00 +6°C° 0 mm 1 mps 767 mmHg 66%
    07:00 +7°C° 0 mm 1 mps 767 mmHg 63%
    08:00 +7°C° 0 mm 1 mps 767 mmHg 59%
    09:00 +7°C° 0 mm 2 mps 767 mmHg 56%
    10:00 +8°C° 0 mm 2 mps 767 mmHg 50%
    11:00 +11°C° 0 mm 1 mps 766 mmHg 43%
    12:00 +12°C° 0 mm 1 mps 765 mmHg 36%
    13:00 +13°C° 0 mm 1 mps 764 mmHg 34%
    14:00 +13°C° 0 mm 1 mps 763 mmHg 32%
    15:00 +14°C° 0 mm 1 mps 762 mmHg 30%
    16:00 +14°C° 0 mm 1 mps 762 mmHg 31%
    17:00 +13°C° 0 mm 1 mps 762 mmHg 32%
    18:00 +13°C° 0 mm 2 mps 762 mmHg 33%
    19:00 +12°C° 0.4 mm 1 mps 762 mmHg 39%
    20:00 +11°C° 0.4 mm 1 mps 762 mmHg 46%
    21:00 +9°C° 0.4 mm 0 mps 762 mmHg 52%
    22:00 +10°C° 1.1 mm 1 mps 761 mmHg 57%
    23:00 +8°C° 1.1 mm 2 mps 760 mmHg 62%

    23 February, Saturday

    Time Temperature Precipitation Wind Pressure Humidity
    00:00 +8°C° 1.1 mm 3 mps 760 mmHg 66%
    01:00 +8°C° 1.4 mm 3 mps 759 mmHg 68%
    02:00 +8°C° 1.4 mm 3 mps 758 mmHg 70%
    03:00 +7°C° 1.4 mm 4 mps 757 mmHg 72%
    04:00 +7°C° 0.6 mm 4 mps 757 mmHg 72%
    05:00 +7°C° 0.6 mm 4 mps 757 mmHg 72%
    06:00 +7°C° 0.6 mm 4 mps 757 mmHg 72%
    07:00 +7°C° 0 mm 4 mps 757 mmHg 69%
    08:00 +8°C° 0 mm 4 mps 758 mmHg 67%
    09:00 +8°C° 0 mm 4 mps 758 mmHg 64%
    10:00 +8°C° 0 mm 5 mps 758 mmHg 60%
    11:00 +9°C° 0 mm 6 mps 758 mmHg 56%
    12:00 +10°C° 0 mm 6 mps 758 mmHg 52%
    13:00 +10°C° 0 mm 7 mps 758 mmHg 51%
    14:00 +10°C° 0 mm 7 mps 758 mmHg 50%
    15:00 +10°C° 0 mm 7 mps 758 mmHg 50%
    16:00 +9°C° 0 mm 7 mps 759 mmHg 51%
    17:00 +8°C° 0 mm 6 mps 760 mmHg 52%
    18:00 +7°C° 0 mm 6 mps 760 mmHg 54%
    19:00 +7°C° 0 mm 6 mps 761 mmHg 56%
    20:00 +6°C° 0 mm 5 mps 762 mmHg 58%
    21:00 +6°C° 0 mm 5 mps 763 mmHg 60%
    22:00 +5°C° 0 mm 5 mps 763 mmHg 60%
    23:00 +5°C° 0 mm 5 mps 764 mmHg 60%

    24 February, Sunday

    Time Temperature Precipitation Wind Pressure Humidity
    00:00 +3°C° 0 mm 5 mps 764 mmHg 61%
    01:00 +4°C° 0 mm 4 mps 764 mmHg 61%
    02:00 +4°C° 0 mm 4 mps 765 mmHg 61%
    03:00 +4°C° 0 mm 4 mps 765 mmHg 61%
    04:00 +4°C° 0 mm 4 mps 765 mmHg 61%
    05:00 +3°C° 0 mm 3 mps 766 mmHg 62%
    06:00 +3°C° 0 mm 3 mps 766 mmHg 62%
    07:00 +5°C° 0 mm 2 mps 767 mmHg 60%
    08:00 +5°C° 0 mm 2 mps 767 mmHg 57%
    09:00 +6°C° 0 mm 2 mps 768 mmHg 54%
    10:00 +7°C° 0 mm 2 mps 767 mmHg 49%
    11:00 +8°C° 0 mm 2 mps 767 mmHg 44%
    12:00 +10°C° 0 mm 2 mps 767 mmHg 39%
    13:00 +10°C° 0 mm 2 mps 767 mmHg 37%
    14:00 +12°C° 0 mm 1 mps 766 mmHg 34%
    15:00 +13°C° 0 mm 1 mps 766 mmHg 31%
    16:00 +12°C° 0 mm 1 mps 766 mmHg 33%
    17:00 +12°C° 0 mm 1 mps 766 mmHg 36%
    18:00 +12°C° 0 mm 1 mps 767 mmHg 38%
    19:00 +11°C° 0 mm 1 mps 767 mmHg 41%
    20:00 +10°C° 0 mm 1 mps 767 mmHg 44%
    21:00 +10°C° 0 mm 1 mps 768 mmHg 47%
    22:00 +9°C° 0 mm 1 mps 768 mmHg 49%
    23:00 +9°C° 0 mm 1 mps 767 mmHg 51%
    Show more